Location: *
(37.5724°S, 58.0067°E)
Time: 10:16:25
(UTC+00:00)

Cosmos 1980 - Pass Details

Date: 01 February 2021
Orbit: 840 x 846 km, 71.0° (Epoch: 07 March)

Event Time Altitude Azimuth Distance (km) Brightness Sun altitude
Rises 19:26:32 0° 187° (S) 3,441 7.9 -34.0°
Reaches altitude 10° 19:30:08 10° 164° (SSE) 2,497 6.8 -34.2°
Maximum altitude 19:33:27 16° 128° (SE) 2,122 6.0 -34.4°
Enters shadow 19:33:58 15° 122° (ESE) 2,130 5.9 -34.4°
